Location: Castillon
(43.1358°N, 0.8654°E)
Time: 19:53:11
(UTC+00:00)

CZ-4B R/B - Pass Details

Date: 24 January 2021
Orbit: 809 x 882 km, 99.1° (Epoch: 28 February)

Event Time Altitude Azimuth Distance (km) Brightness Sun altitude
Rises 17:22:11 0° 163° (SSE) 3,410 6.4 -4.8°
Reaches altitude 10° 17:24:32 10° 163° (SSE) 2,488 5.7 -5.2°
Maximum altitude 17:30:05 87° 76° (ENE) 877 3.3 -6.1°
Drops below altitude 10° 17:35:45 10° 346° (NNW) 2,542 5.6 -7.1°
Sets 17:38:10 0° 347° (NNW) 3,489 6.3 -7.5°
